Find Starlink 1063

NORAD ID: 44768 Int'l Des: 2019-074 Owner: SPXS Country: US Constellation: starlink operational
LEOCIRCULAR

現在のビュー

3D地球を読み込み中...

About Starlink 1063

Starlink 1063 (NORAD 44768) is a starlink constellation satellite (v1.0) launched Nov 11, 2019 by SPXS of US. It operates in LEO, CIRCULAR orbit with a mass of 260.00 kg.

Starlink 1063について

説明を読み込み中...

次回通過

Passes for default location (London). Set your location on the main map for personalized predictions.

高度履歴

Loading altitude history...

軌道要素

1 44768U 19074BH 26166.51870659 .00061331 00000-0 10789-2 0 9993
2 44768 53.1550 117.7487 0002437 90.9319 269.1970 15.49914645363398
Epoch: Jun 15, 2026 • Age: 8 hours

現在のステータス

高度 427.4 km
速度 7.65 km/s
衛星直下点 -30.88°S, 114.58°W
打ち上げ日 Nov 11, 2019
運用期間 6.5 years
タイプ internet

技術仕様

分類 Payload
質量 260.00 kg
乾燥質量 248.00 kg
総質量 260.00 kg
長さ 0.20 m
直径 2.80 m
スパン 9.00 m
形状 Box + pan
製造者 SPXS
バスタイプ Starlink
フェーズステータス In Orbit
所有者/国 SPXS/US

Most Searched